Tabellarische Ansicht des 29.11.2007


Die einzelnen Werte des Tages

Uhrzeit Temperatur Luftdruck Luftfeuchte Wind Hi-Wind Taupunkt THW Index Wind Chill Heat Index Solar- strahlung Regen

00:00

1.9 C

1012.5 hpa

81 %

6.4 km/h aus 113

9.7 km/h aus SSE

-1.0 C

-0.2 C

0.0 C

1.7 C

0 W/m

0.00 mm

00:05

1.8 C

1012.5 hpa

80 %

8.0 km/h aus 112

11.3 km/h aus ESE

-1.3 C

-0.7 C

-0.6 C

1.7 C

0 W/m

0.00 mm

00:10

1.8 C

1012.5 hpa

80 %

6.4 km/h aus 111

11.3 km/h aus ESE

-1.3 C

-0.3 C

-0.1 C

1.6 C

0 W/m

0.00 mm

00:15

1.7 C

1012.5 hpa

80 %

6.4 km/h aus 110

11.3 km/h aus ESE

-1.4 C

-0.3 C

-0.2 C

1.6 C

0 W/m

0.00 mm

00:20

1.7 C

1012.5 hpa

81 %

6.4 km/h aus 106

9.7 km/h aus ESE

-1.2 C

-0.3 C

-0.2 C

1.6 C

0 W/m

0.00 mm

00:25

1.7 C

1012.5 hpa

81 %

3.2 km/h aus 111

6.4 km/h aus SE

-1.2 C

1.1 C

1.3 C

1.5 C

0 W/m

0.00 mm

00:30

1.6 C

1012.3 hpa

81 %

3.2 km/h aus 112

6.4 km/h aus ESE

-1.3 C

1.1 C

1.2 C

1.4 C

0 W/m

0.00 mm

00:35

1.6 C

1012.3 hpa

81 %

4.8 km/h aus 110

8.0 km/h aus ESE

-1.4 C

0.1 C

0.3 C

1.4 C

0 W/m

0.00 mm

00:40

1.5 C

1012.3 hpa

82 %

4.8 km/h aus 110

8.0 km/h aus SE

-1.2 C

0.1 C

0.2 C

1.3 C

0 W/m

0.00 mm

00:45

1.4 C

1012.0 hpa

82 %

6.4 km/h aus 113

11.3 km/h aus SSE

-1.3 C

-0.7 C

-0.5 C

1.3 C

0 W/m

0.00 mm

00:50

1.4 C

1012.0 hpa

83 %

11.3 km/h aus 115

19.3 km/h aus SSE

-1.2 C

-2.1 C

-1.9 C

1.2 C

0 W/m

0.00 mm

00:55

1.4 C

1012.0 hpa

83 %

14.5 km/h aus 110

19.3 km/h aus SSE

-1.2 C

-2.8 C

-2.6 C

1.2 C

0 W/m

0.00 mm

01:00

1.4 C

1011.9 hpa

83 %

12.9 km/h aus 110

19.3 km/h aus SSE

-1.1 C

-2.4 C

-2.2 C

1.3 C

0 W/m

0.00 mm

01:05

1.4 C

1011.9 hpa

83 %

9.7 km/h aus 114

16.1 km/h aus S

-1.1 C

-1.7 C

-1.5 C

1.3 C

0 W/m

0.00 mm

01:10

1.4 C

1011.9 hpa

83 %

12.9 km/h aus 110

16.1 km/h aus SSE

-1.2 C

-2.4 C

-2.3 C

1.2 C

0 W/m

0.00 mm

01:15

1.3 C

1011.5 hpa

83 %

12.9 km/h aus 109

17.7 km/h aus S

-1.2 C

-2.5 C

-2.3 C

1.2 C

0 W/m

0.00 mm

01:20

1.3 C

1011.5 hpa

83 %

14.5 km/h aus 109

17.7 km/h aus S

-1.2 C

-2.8 C

-2.7 C

1.2 C

0 W/m

0.00 mm

01:25

1.3 C

1011.5 hpa

84 %

16.1 km/h aus 108

19.3 km/h aus S

-1.1 C

-3.1 C

-2.9 C

1.2 C

0 W/m

0.00 mm

01:30

1.3 C

1011.3 hpa

83 %

19.3 km/h aus 109

27.4 km/h aus S

-1.2 C

-3.6 C

-3.4 C

1.2 C

0 W/m

0.00 mm

01:35

1.3 C

1011.3 hpa

84 %

20.9 km/h aus 107

24.1 km/h aus S

-1.1 C

-3.8 C

-3.7 C

1.2 C

0 W/m

0.00 mm

01:40

1.4 C

1011.3 hpa

83 %

19.3 km/h aus 108

24.1 km/h aus S

-1.1 C

-3.4 C

-3.3 C

1.3 C

0 W/m

0.00 mm

01:45

1.4 C

1011.1 hpa

83 %

17.7 km/h aus 113

22.5 km/h aus S

-1.1 C

-3.2 C

-3.1 C

1.3 C

0 W/m

0.00 mm

01:50

1.4 C

1011.1 hpa

83 %

16.1 km/h aus 110

20.9 km/h aus S

-1.1 C

-3.0 C

-2.8 C

1.3 C

0 W/m

0.00 mm

01:55

1.4 C

1011.1 hpa

83 %

12.9 km/h aus 112

20.9 km/h aus S

-1.1 C

-2.4 C

-2.2 C

1.3 C

0 W/m

0.00 mm

02:00

1.4 C

1010.9 hpa

83 %

9.7 km/h aus 115

19.3 km/h aus SSE

-1.1 C

-1.7 C

-1.5 C

1.3 C

0 W/m

0.00 mm

02:05

1.4 C

1010.9 hpa

83 %

6.4 km/h aus 112

17.7 km/h aus SSE

-1.1 C

-0.7 C

-0.5 C

1.3 C

0 W/m

0.00 mm

02:10

1.4 C

1010.9 hpa

83 %

6.4 km/h aus 116

14.5 km/h aus SSE

-1.1 C

-0.7 C

-0.5 C

1.3 C

0 W/m

0.00 mm

02:15

1.4 C

1011.0 hpa

83 %

3.2 km/h aus 108

6.4 km/h aus SE

-1.1 C

0.8 C

1.0 C

1.3 C

0 W/m

0.00 mm

02:20

1.4 C

1011.0 hpa

83 %

4.8 km/h aus 108

6.4 km/h aus ESE

-1.1 C

0.0 C

0.2 C

1.3 C

0 W/m

0.00 mm

02:25

1.5 C

1011.0 hpa

83 %

4.8 km/h aus 106

9.7 km/h aus SSE

-1.1 C

0.1 C

0.2 C

1.3 C

0 W/m

0.00 mm

02:30

1.6 C

1010.8 hpa

82 %

8.0 km/h aus 112

20.9 km/h aus SSW

-1.2 C

-1.1 C

-0.9 C

1.4 C

0 W/m

0.00 mm

02:35

1.6 C

1010.8 hpa

82 %

8.0 km/h aus 111

16.1 km/h aus S

-1.1 C

-1.0 C

-0.8 C

1.4 C

0 W/m

0.00 mm

02:40

1.7 C

1010.8 hpa

82 %

8.0 km/h aus 109

17.7 km/h aus S

-1.1 C

-0.9 C

-0.8 C

1.5 C

0 W/m

0.00 mm

02:45

1.8 C

1010.4 hpa

81 %

6.4 km/h aus 111

14.5 km/h aus S

-1.1 C

-0.3 C

-0.1 C

1.6 C

0 W/m

0.00 mm

02:50

1.8 C

1010.4 hpa

81 %

9.7 km/h aus 111

17.7 km/h aus S

-1.1 C

-1.3 C

-1.1 C

1.6 C

0 W/m

0.00 mm

02:55

1.9 C

1010.4 hpa

81 %

4.8 km/h aus 113

17.7 km/h aus SSW

-1.0 C

0.5 C

0.7 C

1.7 C

0 W/m

0.00 mm

03:00

2.0 C

1010.3 hpa

80 %

6.4 km/h aus 110

11.3 km/h aus S

-1.1 C

-0.1 C

0.1 C

1.8 C

0 W/m

0.00 mm

03:05

2.1 C

1010.3 hpa

80 %

8.0 km/h aus 111

16.1 km/h aus SSE

-1.0 C

-0.5 C

-0.3 C

1.9 C

0 W/m

0.00 mm

03:10

2.2 C

1010.3 hpa

79 %

11.3 km/h aus 108

22.5 km/h aus S

-1.1 C

-1.2 C

-1.0 C

2.0 C

0 W/m

0.00 mm

03:15

2.3 C

1009.9 hpa

79 %

6.4 km/h aus 114

17.7 km/h aus SSE

-1.0 C

0.3 C

0.4 C

2.1 C

0 W/m

0.00 mm

03:20

2.4 C

1009.9 hpa

78 %

11.3 km/h aus 112

17.7 km/h aus SSE

-1.0 C

-0.8 C

-0.7 C

2.3 C

0 W/m

0.00 mm

03:25

2.6 C

1009.9 hpa

78 %

12.9 km/h aus 113

19.3 km/h aus SSE

-0.9 C

-1.1 C

-0.9 C

2.4 C

0 W/m

0.00 mm

03:30

2.6 C

1009.8 hpa

78 %

11.3 km/h aus 114

19.3 km/h aus S

-0.8 C

-0.6 C

-0.4 C

2.4 C

0 W/m

0.00 mm

03:35

2.7 C

1009.8 hpa

77 %

12.9 km/h aus 109

22.5 km/h aus S

-0.9 C

-0.9 C

-0.7 C

2.5 C

0 W/m

0.00 mm

03:40

2.8 C

1009.8 hpa

77 %

14.5 km/h aus 112

24.1 km/h aus S

-0.9 C

-1.1 C

-0.9 C

2.6 C

0 W/m

0.00 mm

03:45

2.8 C

1009.5 hpa

77 %

16.1 km/h aus 111

25.7 km/h aus S

-0.8 C

-1.3 C

-1.1 C

2.6 C

0 W/m

0.00 mm

03:50

2.9 C

1009.5 hpa

76 %

16.1 km/h aus 112

24.1 km/h aus SSW

-0.9 C

-1.2 C

-0.9 C

2.7 C

0 W/m

0.00 mm

03:55

3.0 C

1009.5 hpa

75 %

11.3 km/h aus 111

20.9 km/h aus SSW

-1.0 C

-0.2 C

0.0 C

2.8 C

0 W/m

0.00 mm

04:00

3.1 C

1009.4 hpa

75 %

16.1 km/h aus 112

30.6 km/h aus SSW

-0.9 C

-1.1 C

-0.8 C

2.8 C

0 W/m

0.00 mm

04:05

3.1 C

1009.4 hpa

75 %

17.7 km/h aus 112

32.2 km/h aus SSW

-0.9 C

-1.2 C

-1.0 C

2.9 C

0 W/m

0.00 mm

04:10

3.2 C

1009.4 hpa

74 %

20.9 km/h aus 112

37.0 km/h aus SSW

-1.0 C

-1.6 C

-1.3 C

2.9 C

0 W/m

0.00 mm

04:15

3.2 C

1008.8 hpa

74 %

16.1 km/h aus 110

24.1 km/h aus SSW

-1.0 C

-0.8 C

-0.6 C

3.0 C

0 W/m

0.00 mm

04:20

3.3 C

1008.8 hpa

75 %

19.3 km/h aus 108

27.4 km/h aus S

-0.7 C

-1.2 C

-1.0 C

3.1 C

0 W/m

0.00 mm

04:25

3.2 C

1008.8 hpa

75 %

16.1 km/h aus 112

27.4 km/h aus S

-0.8 C

-0.8 C

-0.6 C

3.0 C

0 W/m

0.00 mm

04:30

3.2 C

1008.8 hpa

74 %

14.5 km/h aus 110

27.4 km/h aus SW

-1.0 C

-0.6 C

-0.3 C

3.0 C

0 W/m

0.00 mm

04:35

3.3 C

1008.8 hpa

74 %

17.7 km/h aus 113

25.7 km/h aus SSW

-0.9 C

-1.0 C

-0.8 C

3.1 C

0 W/m

0.00 mm

04:40

3.3 C

1008.8 hpa

75 %

14.5 km/h aus 110

19.3 km/h aus S

-0.7 C

-0.5 C

-0.3 C

3.1 C

0 W/m

0.00 mm

04:45

3.2 C

1008.8 hpa

75 %

12.9 km/h aus 109

20.9 km/h aus S

-0.8 C

-0.3 C

-0.1 C

3.0 C

0 W/m

0.00 mm

04:50

3.2 C

1008.8 hpa

75 %

14.5 km/h aus 112

20.9 km/h aus SSW

-0.8 C

-0.6 C

-0.3 C

3.0 C

0 W/m

0.00 mm

04:55

3.2 C

1008.8 hpa

76 %

16.1 km/h aus 112

24.1 km/h aus S

-0.7 C

-0.9 C

-0.7 C

2.9 C

0 W/m

0.00 mm

05:00

3.2 C

1008.8 hpa

76 %

14.5 km/h aus 111

22.5 km/h aus SSW

-0.7 C

-0.6 C

-0.4 C

2.9 C

0 W/m

0.00 mm

05:05

3.2 C

1008.8 hpa

76 %

14.5 km/h aus 109

22.5 km/h aus S

-0.7 C

-0.6 C

-0.4 C

2.9 C

0 W/m

0.00 mm

05:10

3.2 C

1008.8 hpa

76 %

17.7 km/h aus 113

24.1 km/h aus S

-0.7 C

-1.1 C

-0.9 C

2.9 C

0 W/m

0.00 mm

05:15

3.2 C

1008.4 hpa

76 %

17.7 km/h aus 110

22.5 km/h aus SSW

-0.7 C

-1.1 C

-0.9 C

2.9 C

0 W/m

0.00 mm

05:20

3.2 C

1008.4 hpa

76 %

19.3 km/h aus 110

25.7 km/h aus SSW

-0.6 C

-1.3 C

-1.1 C

3.0 C

0 W/m

0.00 mm

05:25

3.3 C

1008.4 hpa

76 %

16.1 km/h aus 111

22.5 km/h aus S

-0.6 C

-0.8 C

-0.6 C

3.1 C

0 W/m

0.00 mm

05:30

3.3 C

1008.3 hpa

76 %

11.3 km/h aus 110

19.3 km/h aus SSE

-0.6 C

0.1 C

0.3 C

3.1 C

0 W/m

0.00 mm

05:35

3.3 C

1008.3 hpa

76 %

14.5 km/h aus 107

24.1 km/h aus S

-0.5 C

-0.4 C

-0.2 C

3.1 C

0 W/m

0.00 mm

05:40

3.4 C

1008.3 hpa

76 %

11.3 km/h aus 112

19.3 km/h aus S

-0.4 C

0.2 C

0.4 C

3.2 C

0 W/m

0.00 mm

05:45

3.4 C

1008.2 hpa

76 %

12.9 km/h aus 112

20.9 km/h aus SSE

-0.4 C

-0.1 C

0.2 C

3.2 C

0 W/m

0.00 mm

05:50

3.4 C

1008.2 hpa

76 %

16.1 km/h aus 109

25.7 km/h aus S

-0.4 C

-0.6 C

-0.4 C

3.2 C

0 W/m

0.00 mm

05:55

3.4 C

1008.2 hpa

76 %

12.9 km/h aus 110

24.1 km/h aus S

-0.4 C

0.0 C

0.2 C

3.2 C

0 W/m

0.00 mm

06:00

3.4 C

1008.2 hpa

76 %

11.3 km/h aus 108

16.1 km/h aus S

-0.4 C

0.3 C

0.6 C

3.2 C

0 W/m

0.00 mm

06:05

3.4 C

1008.2 hpa

76 %

12.9 km/h aus 107

22.5 km/h aus S

-0.4 C

0.0 C

0.2 C

3.2 C

0 W/m

0.00 mm

06:10

3.4 C

1008.2 hpa

76 %

12.9 km/h aus 105

19.3 km/h aus SSE

-0.4 C

-0.1 C

0.2 C

3.2 C

0 W/m

0.00 mm

06:15

3.4 C

1008.0 hpa

76 %

11.3 km/h aus 105

19.3 km/h aus SSE

-0.4 C

0.2 C

0.4 C

3.2 C

0 W/m

0.00 mm

06:20

3.4 C

1008.0 hpa

77 %

9.7 km/h aus 111

14.5 km/h aus S

-0.3 C

0.6 C

0.8 C

3.2 C

0 W/m

0.00 mm

06:25

3.4 C

1008.0 hpa

77 %

9.7 km/h aus 107

17.7 km/h aus SSE

-0.3 C

0.6 C

0.8 C

3.2 C

0 W/m

0.00 mm

06:30

3.3 C

1007.8 hpa

78 %

16.1 km/h aus 106

22.5 km/h aus S

-0.1 C

-0.6 C

-0.4 C

3.2 C

0 W/m

0.00 mm

06:35

3.4 C

1007.8 hpa

77 %

19.3 km/h aus 109

25.7 km/h aus S

-0.3 C

-1.1 C

-0.8 C

3.2 C

0 W/m

0.00 mm

06:40

3.4 C

1007.8 hpa

78 %

19.3 km/h aus 111

30.6 km/h aus S

0.0 C

-0.9 C

-0.8 C

3.3 C

0 W/m

0.00 mm

06:45

3.5 C

1007.6 hpa

78 %

20.9 km/h aus 113

27.4 km/h aus S

0.0 C

-1.1 C

-0.9 C

3.3 C

0 W/m

0.00 mm

06:50

3.6 C

1007.6 hpa

77 %

24.1 km/h aus 113

30.6 km/h aus S

-0.1 C

-1.4 C

-1.2 C

3.3 C

0 W/m

0.00 mm

06:55

3.6 C

1007.6 hpa

77 %

20.9 km/h aus 112

27.4 km/h aus S

-0.1 C

-1.1 C

-0.8 C

3.3 C

0 W/m

0.00 mm

07:00

3.7 C

1007.4 hpa

78 %

19.3 km/h aus 115

25.7 km/h aus S

0.2 C

-0.7 C

-0.5 C

3.5 C

0 W/m

0.00 mm

07:05

3.7 C

1007.4 hpa

78 %

20.9 km/h aus 109

25.7 km/h aus SSW

0.2 C

-0.8 C

-0.7 C

3.6 C

0 W/m

0.00 mm

07:10

3.8 C

1007.4 hpa

77 %

24.1 km/h aus 107

38.6 km/h aus SSW

0.2 C

-1.1 C

-0.9 C

3.6 C

0 W/m

0.00 mm

07:15

3.9 C

1007.3 hpa

77 %

19.3 km/h aus 104

27.4 km/h aus S

0.3 C

-0.4 C

-0.2 C

3.7 C

0 W/m

0.00 mm

07:20

4.0 C

1007.3 hpa

77 %

17.7 km/h aus 114

25.7 km/h aus S

0.3 C

-0.1 C

0.1 C

3.8 C

0 W/m

0.00 mm

07:25

4.1 C

1007.3 hpa

77 %

17.7 km/h aus 110

24.1 km/h aus S

0.4 C

0.0 C

0.2 C

3.8 C

0 W/m

0.00 mm

07:30

4.1 C

1007.3 hpa

78 %

16.1 km/h aus 109

24.1 km/h aus S

0.6 C

0.3 C

0.5 C

3.9 C

0 W/m

0.00 mm

07:35

4.2 C

1007.3 hpa

77 %

19.3 km/h aus 110

27.4 km/h aus S

0.5 C

-0.1 C

0.1 C

3.9 C

0 W/m

0.00 mm

07:40

4.3 C

1007.3 hpa

77 %

19.3 km/h aus 106

25.7 km/h aus SSW

0.6 C

0.1 C

0.3 C

4.1 C

0 W/m

0.00 mm

07:45

4.3 C

1007.2 hpa

78 %

17.7 km/h aus 114

25.7 km/h aus S

0.8 C

0.3 C

0.6 C

4.1 C

0 W/m

0.00 mm

07:50

4.3 C

1007.2 hpa

78 %

20.9 km/h aus 109

27.4 km/h aus SSW

0.8 C

-0.1 C

0.1 C

4.1 C

0 W/m

0.00 mm

07:55

4.4 C

1007.2 hpa

78 %

17.7 km/h aus 110

27.4 km/h aus SSW

0.9 C

0.4 C

0.7 C

4.2 C

0 W/m

0.00 mm

08:00

4.5 C

1007.3 hpa

77 %

14.5 km/h aus 114

20.9 km/h aus SSW

0.8 C

1.0 C

1.2 C

4.3 C

0 W/m

0.00 mm

08:05

4.6 C

1007.3 hpa

77 %

17.7 km/h aus 112

29.0 km/h aus SSW

0.9 C

0.6 C

0.8 C

4.3 C

0 W/m

0.00 mm

08:10

4.6 C

1007.3 hpa

77 %

17.7 km/h aus 107

20.9 km/h aus SSW

0.9 C

0.6 C

0.8 C

4.3 C

0 W/m

0.00 mm

08:15

4.7 C

1006.8 hpa

77 %

17.7 km/h aus 111

27.4 km/h aus SW

1.0 C

0.7 C

0.9 C

4.4 C

0 W/m

0.00 mm

08:20

4.8 C

1006.8 hpa

77 %

19.3 km/h aus 109

25.7 km/h aus SSW

1.1 C

0.7 C

0.9 C

4.6 C

0 W/m

0.00 mm

08:25

4.9 C

1006.8 hpa

77 %

16.1 km/h aus 111

25.7 km/h aus S

1.2 C

1.3 C

1.5 C

4.7 C

0 W/m

0.00 mm

08:30

5.1 C

1006.8 hpa

77 %

14.5 km/h aus 109

24.1 km/h aus SSW

1.4 C

1.7 C

1.9 C

4.8 C

0 W/m

0.00 mm

08:35

5.2 C

1006.8 hpa

77 %

16.1 km/h aus 110

25.7 km/h aus SSW

1.5 C

1.6 C

1.8 C

4.9 C

0 W/m

0.00 mm

08:40

5.2 C

1006.8 hpa

76 %

14.5 km/h aus 111

24.1 km/h aus SSW

1.3 C

1.9 C

2.1 C

5.0 C

0 W/m

0.00 mm

08:45

5.3 C

1007.0 hpa

76 %

17.7 km/h aus 111

27.4 km/h aus SSW

1.4 C

1.5 C

1.7 C

5.1 C

0 W/m

0.00 mm

08:50

5.4 C

1007.0 hpa

76 %

17.7 km/h aus 114

30.6 km/h aus SW

1.5 C

1.6 C

1.8 C

5.2 C

0 W/m

0.00 mm

08:55

5.5 C

1007.0 hpa

76 %

20.9 km/h aus 106

32.2 km/h aus SSW

1.6 C

1.3 C

1.5 C

5.3 C

0 W/m

0.00 mm

09:00

5.6 C

1007.1 hpa

76 %

19.3 km/h aus 110

30.6 km/h aus SSW

1.7 C

1.6 C

1.8 C

5.4 C

0 W/m

0.00 mm

09:05

5.6 C

1007.1 hpa

77 %

20.9 km/h aus 108

35.4 km/h aus SSW

1.9 C

1.4 C

1.6 C

5.4 C

0 W/m

0.00 mm

09:10

5.7 C

1007.1 hpa

79 %

19.3 km/h aus 113

33.8 km/h aus SW

2.3 C

1.7 C

1.8 C

5.5 C

0 W/m

0.00 mm

09:15

5.6 C

1007.0 hpa

81 %

17.7 km/h aus 107

30.6 km/h aus SSW

2.6 C

1.8 C

1.9 C

5.4 C

0 W/m

0.00 mm

09:20

5.4 C

1007.0 hpa

81 %

14.5 km/h aus 107

22.5 km/h aus SSW

2.4 C

2.2 C

2.4 C

5.3 C

0 W/m

0.00 mm

09:25

5.4 C

1007.0 hpa

82 %

16.1 km/h aus 106

29.0 km/h aus S

2.6 C

1.8 C

2.0 C

5.2 C

0 W/m

0.00 mm

09:30

5.3 C

1006.8 hpa

82 %

17.7 km/h aus 112

27.4 km/h aus WSW

2.5 C

1.6 C

1.7 C

5.2 C

0 W/m

0.00 mm

09:35

5.3 C

1006.8 hpa

83 %

17.7 km/h aus 112

30.6 km/h aus SSW

2.7 C

1.6 C

1.7 C

5.2 C

0 W/m

0.00 mm

09:40

5.3 C

1006.8 hpa

83 %

19.3 km/h aus 108

29.0 km/h aus SSW

2.6 C

1.3 C

1.4 C

5.2 C

0 W/m

0.00 mm

09:45

5.3 C

1006.7 hpa

84 %

14.5 km/h aus 112

24.1 km/h aus SSW

2.8 C

2.1 C

2.2 C

5.2 C

0 W/m

0.00 mm

09:50

5.2 C

1006.7 hpa

84 %

20.9 km/h aus 112

29.0 km/h aus SSW

2.7 C

1.1 C

1.2 C

5.1 C

0 W/m

0.00 mm

09:55

5.2 C

1006.7 hpa

85 %

16.1 km/h aus 107

30.6 km/h aus SSW

2.9 C

1.7 C

1.8 C

5.1 C

0 W/m

0.00 mm

10:00

5.2 C

1006.7 hpa

85 %

12.9 km/h aus 112

22.5 km/h aus SSW

2.9 C

2.3 C

2.4 C

5.1 C

0 W/m

0.00 mm

10:05

5.2 C

1006.7 hpa

85 %

14.5 km/h aus 113

22.5 km/h aus S

2.9 C

1.9 C

2.1 C

5.1 C

0 W/m

0.00 mm

10:10

5.2 C

1006.7 hpa

86 %

11.3 km/h aus 112

24.1 km/h aus SSW

3.0 C

2.5 C

2.6 C

5.1 C

0 W/m

0.00 mm

10:15

5.2 C

1006.7 hpa

86 %

11.3 km/h aus 109

20.9 km/h aus WSW

3.0 C

2.5 C

2.6 C

5.1 C

0 W/m

0.00 mm

10:20

5.2 C

1006.7 hpa

86 %

11.3 km/h aus 111

22.5 km/h aus SW

3.0 C

2.5 C

2.6 C

5.1 C

0 W/m

0.00 mm

10:25

5.2 C

1006.7 hpa

86 %

9.7 km/h aus 106

16.1 km/h aus SSW

3.0 C

2.8 C

2.9 C

5.1 C

0 W/m

0.00 mm

10:30

5.2 C

1006.6 hpa

87 %

9.7 km/h aus 110

16.1 km/h aus S

3.2 C

2.9 C

2.9 C

5.1 C

0 W/m

0.00 mm

10:35

5.2 C

1006.6 hpa

87 %

6.4 km/h aus 113

16.1 km/h aus SSW

3.2 C

3.7 C

3.8 C

5.1 C

0 W/m

0.00 mm

10:40

5.2 C

1006.6 hpa

87 %

9.7 km/h aus 110

20.9 km/h aus SSW

3.2 C

2.9 C

2.9 C

5.1 C

0 W/m

0.00 mm

10:45

5.2 C

1006.7 hpa

87 %

8.0 km/h aus 111

22.5 km/h aus S

3.2 C

3.3 C

3.3 C

5.1 C

0 W/m

0.00 mm

10:50

5.2 C

1006.7 hpa

87 %

9.7 km/h aus 112

25.7 km/h aus SSW

3.2 C

2.9 C

2.9 C

5.1 C

0 W/m

0.00 mm

10:55

5.2 C

1006.7 hpa

87 %

8.0 km/h aus 112

16.1 km/h aus SW

3.2 C

3.3 C

3.3 C

5.1 C

0 W/m

0.00 mm

11:00

5.2 C

1006.3 hpa

87 %

16.1 km/h aus 112

22.5 km/h aus SSW

3.2 C

1.7 C

1.8 C

5.1 C

0 W/m

0.00 mm

11:05

5.1 C

1006.3 hpa

87 %

12.9 km/h aus 103

19.3 km/h aus SSW

3.1 C

2.1 C

2.2 C

5.0 C

0 W/m

0.00 mm

11:10

5.1 C

1006.3 hpa

87 %

11.3 km/h aus 111

22.5 km/h aus SSW

3.1 C

2.4 C

2.5 C

5.0 C

0 W/m

0.00 mm

11:15

5.1 C

1006.2 hpa

87 %

14.5 km/h aus 112

24.1 km/h aus SSW

3.1 C

1.8 C

1.9 C

4.9 C

0 W/m

0.00 mm

11:20

5.1 C

1006.2 hpa

88 %

16.1 km/h aus 112

29.0 km/h aus SSW

3.2 C

1.6 C

1.6 C

5.0 C

0 W/m

0.00 mm

11:25

5.1 C

1006.2 hpa

88 %

16.1 km/h aus 113

30.6 km/h aus S

3.2 C

1.6 C

1.6 C

5.0 C

0 W/m

0.00 mm

11:30

5.1 C

1006.0 hpa

88 %

20.9 km/h aus 112

30.6 km/h aus SSW

3.2 C

0.9 C

0.9 C

5.0 C

0 W/m

0.00 mm

11:35

5.1 C

1006.0 hpa

89 %

20.9 km/h aus 112

32.2 km/h aus SSW

3.4 C

0.9 C

0.9 C

5.0 C

0 W/m

0.00 mm

11:40

5.1 C

1006.0 hpa

89 %

19.3 km/h aus 111

29.0 km/h aus SSW

3.4 C

1.1 C

1.2 C

5.0 C

0 W/m

0.00 mm

11:45

5.1 C

1005.7 hpa

89 %

20.9 km/h aus 116

35.4 km/h aus SSW

3.4 C

0.9 C

0.9 C

5.0 C

0 W/m

0.00 mm

11:50

5.1 C

1005.7 hpa

89 %

22.5 km/h aus 111

33.8 km/h aus SSW

3.4 C

0.8 C

0.8 C

5.1 C

0 W/m

0.00 mm

11:55

5.1 C

1005.7 hpa

90 %

17.7 km/h aus 113

24.1 km/h aus SSW

3.6 C

1.4 C

1.4 C

5.1 C

0 W/m

0.00 mm

12:00

5.2 C

1005.7 hpa

90 %

17.7 km/h aus 114

29.0 km/h aus SSW

3.7 C

1.4 C

1.5 C

5.1 C

0 W/m

0.00 mm

12:05

5.2 C

1005.7 hpa

90 %

17.7 km/h aus 110

29.0 km/h aus SSW

3.7 C

1.5 C

1.6 C

5.2 C

0 W/m

0.00 mm

12:10

5.2 C

1005.7 hpa

90 %

16.1 km/h aus 111

24.1 km/h aus SSW

3.7 C

1.8 C

1.8 C

5.2 C

0 W/m

0.00 mm

12:15

5.3 C

1005.5 hpa

90 %

12.9 km/h aus 115

22.5 km/h aus SW

3.8 C

2.4 C

2.4 C

5.3 C

0 W/m

0.00 mm

12:20

5.3 C

1005.5 hpa

90 %

9.7 km/h aus 116

17.7 km/h aus WSW

3.8 C

3.1 C

3.1 C

5.3 C

0 W/m

0.00 mm

12:25

5.4 C

1005.5 hpa

90 %

14.5 km/h aus 106

24.1 km/h aus SW

3.9 C

2.3 C

2.3 C

5.4 C

0 W/m

0.00 mm

12:30

5.4 C

1005.2 hpa

89 %

12.9 km/h aus 107

22.5 km/h aus SW

3.8 C

2.6 C

2.7 C

5.4 C

0 W/m

0.00 mm

12:35

5.4 C

1005.2 hpa

89 %

14.5 km/h aus 110

27.4 km/h aus SSW

3.8 C

2.3 C

2.4 C

5.4 C

0 W/m

0.00 mm

12:40

5.5 C

1005.2 hpa

89 %

19.3 km/h aus 113

35.4 km/h aus SSW

3.8 C

1.7 C

1.7 C

5.5 C

0 W/m

0.00 mm

12:45

5.6 C

1005.2 hpa

89 %

17.7 km/h aus 110

35.4 km/h aus S

3.9 C

1.9 C

1.9 C

5.6 C

0 W/m

0.00 mm

12:50

5.6 C

1005.2 hpa

89 %

16.1 km/h aus 108

27.4 km/h aus SSW

3.9 C

2.2 C

2.2 C

5.6 C

0 W/m

0.00 mm

12:55

5.6 C

1005.2 hpa

90 %

16.1 km/h aus 113

29.0 km/h aus SSW

4.1 C

2.3 C

2.3 C

5.6 C

0 W/m

0.00 mm

13:00

5.7 C

1005.0 hpa

90 %

14.5 km/h aus 108

25.7 km/h aus SW

4.2 C

2.6 C

2.6 C

5.7 C

0 W/m

0.00 mm

13:05

5.7 C

1005.0 hpa

90 %

17.7 km/h aus 110

32.2 km/h aus SSW

4.2 C

2.1 C

2.1 C

5.7 C

0 W/m

0.00 mm

13:10

5.7 C

1005.0 hpa

90 %

16.1 km/h aus 115

25.7 km/h aus SW

4.2 C

2.3 C

2.3 C

5.7 C

0 W/m

0.00 mm

13:15

5.7 C

1005.1 hpa

90 %

12.9 km/h aus 108

20.9 km/h aus SW

4.2 C

3.0 C

3.0 C

5.7 C

0 W/m

0.00 mm

13:20

5.7 C

1005.1 hpa

90 %

11.3 km/h aus 108

22.5 km/h aus WSW

4.2 C

3.3 C

3.3 C

5.7 C

0 W/m

0.00 mm

13:25

5.7 C

1005.1 hpa

90 %

16.1 km/h aus 110

27.4 km/h aus S

4.2 C

2.4 C

2.4 C

5.7 C

0 W/m

0.00 mm

13:30

5.8 C

1004.9 hpa

90 %

14.5 km/h aus 109

27.4 km/h aus SSW

4.3 C

2.7 C

2.7 C

5.8 C

0 W/m

0.00 mm

13:35

5.8 C

1004.9 hpa

90 %

16.1 km/h aus 109

29.0 km/h aus S

4.3 C

2.4 C

2.4 C

5.8 C

0 W/m

0.00 mm

13:40

5.8 C

1004.9 hpa

90 %

16.1 km/h aus 110

25.7 km/h aus SSW

4.3 C

2.6 C

2.6 C

5.8 C

0 W/m

0.00 mm

13:45

5.8 C

1004.9 hpa

90 %

17.7 km/h aus 107

29.0 km/h aus SSW

4.3 C

2.3 C

2.3 C

5.8 C

0 W/m

0.00 mm

13:50

5.9 C

1004.9 hpa

90 %

19.3 km/h aus 106

27.4 km/h aus SSW

4.4 C

2.1 C

2.1 C

5.9 C

0 W/m

0.00 mm

13:55

5.9 C

1004.9 hpa

89 %

14.5 km/h aus 106

24.1 km/h aus SSW

4.3 C

2.9 C

2.9 C

5.9 C

0 W/m

0.00 mm

14:00

6.0 C

1004.7 hpa

89 %

17.7 km/h aus 110

29.0 km/h aus SSW

4.3 C

2.5 C

2.5 C

6.0 C

0 W/m

0.00 mm

14:05

6.0 C

1004.7 hpa

88 %

14.5 km/h aus 110

22.5 km/h aus SW

4.2 C

3.0 C

3.0 C

6.0 C

0 W/m

0.00 mm

14:10

6.1 C

1004.7 hpa

88 %

16.1 km/h aus 105

24.1 km/h aus SSW

4.2 C

2.8 C

2.8 C

6.1 C

0 W/m

0.00 mm

14:15

6.1 C

1004.6 hpa

87 %

17.7 km/h aus 110

25.7 km/h aus SSW

4.1 C

2.6 C

2.6 C

6.1 C

0 W/m

0.00 mm

14:20

6.2 C

1004.6 hpa

87 %

16.1 km/h aus 108

25.7 km/h aus SW

4.2 C

2.8 C

2.9 C

6.1 C

0 W/m

0.00 mm

14:25

6.2 C

1004.6 hpa

87 %

11.3 km/h aus 113

19.3 km/h aus WSW

4.2 C

3.8 C

3.9 C

6.2 C

0 W/m

0.00 mm

14:30

6.3 C

1004.5 hpa

86 %

19.3 km/h aus 110

29.0 km/h aus SW

4.1 C

2.5 C

2.6 C

6.2 C

0 W/m

0.00 mm

14:35

6.3 C

1004.5 hpa

86 %

11.3 km/h aus 113

25.7 km/h aus WSW

4.1 C

3.9 C

4.0 C

6.2 C

0 W/m

0.00 mm

14:40

6.3 C

1004.5 hpa

86 %

14.5 km/h aus 114

29.0 km/h aus SSW

4.2 C

3.3 C

3.4 C

6.3 C

0 W/m

0.00 mm

14:45

6.3 C

1004.2 hpa

86 %

17.7 km/h aus 107

32.2 km/h aus SSW

4.2 C

2.8 C

2.8 C

6.3 C

0 W/m

0.00 mm

14:50

6.3 C

1004.2 hpa

86 %

16.1 km/h aus 109

30.6 km/h aus WSW

4.2 C

3.1 C

3.1 C

6.3 C

0 W/m

0.00 mm

14:55

6.3 C

1004.2 hpa

86 %

17.7 km/h aus 111

27.4 km/h aus SSW

4.2 C

2.8 C

2.8 C

6.3 C

0 W/m

0.00 mm

15:00

6.3 C

1004.0 hpa

86 %

16.1 km/h aus 109

27.4 km/h aus SSW

4.2 C

3.1 C

3.1 C

6.3 C

0 W/m

0.00 mm

15:05

6.3 C

1004.0 hpa

87 %

17.7 km/h aus 111

25.7 km/h aus SSW

4.3 C

2.8 C

2.8 C

6.3 C

0 W/m

0.00 mm

15:10

6.3 C

1004.0 hpa

87 %

20.9 km/h aus 107

33.8 km/h aus SSW

4.3 C

2.3 C

2.3 C

6.3 C

0 W/m

0.00 mm

15:15

6.3 C

1003.8 hpa

87 %

19.3 km/h aus 106

30.6 km/h aus SSW

4.3 C

2.6 C

2.6 C

6.3 C

0 W/m

0.00 mm

15:20

6.3 C

1003.8 hpa

87 %

22.5 km/h aus 109

35.4 km/h aus SSW

4.3 C

2.2 C

2.2 C

6.3 C

0 W/m

0.00 mm

15:25

6.3 C

1003.8 hpa

87 %

19.3 km/h aus 112

30.6 km/h aus SW

4.3 C

2.6 C

2.6 C

6.3 C

0 W/m

0.00 mm

15:30

6.3 C

1003.8 hpa

87 %

19.3 km/h aus 112

32.2 km/h aus SSW

4.3 C

2.6 C

2.6 C

6.3 C

0 W/m

0.00 mm

15:35

6.3 C

1003.8 hpa

88 %

16.1 km/h aus 115

29.0 km/h aus SSW

4.4 C

3.1 C

3.1 C

6.3 C

0 W/m

0.00 mm

15:40

6.3 C

1003.8 hpa

88 %

19.3 km/h aus 111

29.0 km/h aus SSW

4.4 C

2.6 C

2.6 C

6.3 C

0 W/m

0.00 mm

15:45

6.2 C

1003.7 hpa

88 %

19.3 km/h aus 108

30.6 km/h aus SW

4.4 C

2.5 C

2.5 C

6.2 C

0 W/m

0.00 mm

15:50

6.2 C

1003.7 hpa

89 %

16.1 km/h aus 113

29.0 km/h aus SSW

4.5 C

2.9 C

2.9 C

6.2 C

0 W/m

0.00 mm

15:55

6.2 C

1003.7 hpa

89 %

17.7 km/h aus 112

29.0 km/h aus SW

4.5 C

2.7 C

2.7 C

6.2 C

0 W/m

0.00 mm

16:00

6.2 C

1003.6 hpa

89 %

16.1 km/h aus 110

32.2 km/h aus SSW

4.5 C

2.9 C

2.9 C

6.2 C

0 W/m

0.00 mm

16:05

6.2 C

1003.6 hpa

89 %

19.3 km/h aus 115

27.4 km/h aus S

4.5 C

2.4 C

2.4 C

6.2 C

0 W/m

0.00 mm

16:10

6.2 C

1003.6 hpa

90 %

20.9 km/h aus 113

33.8 km/h aus SSW

4.6 C

2.2 C

2.2 C

6.2 C

0 W/m

0.00 mm

16:15

6.1 C

1003.5 hpa

90 %

17.7 km/h aus 115

33.8 km/h aus SSW

4.6 C

2.6 C

2.6 C

6.1 C

0 W/m

0.00 mm

16:20

6.1 C

1003.5 hpa

89 %

22.5 km/h aus 107

32.2 km/h aus S

4.4 C

2.0 C

2.0 C

6.1 C

0 W/m

0.00 mm

16:25

6.1 C

1003.5 hpa

89 %

19.3 km/h aus 108

30.6 km/h aus SSW

4.4 C

2.4 C

2.4 C

6.1 C

0 W/m

0.00 mm

16:30

6.2 C

1003.5 hpa

89 %

17.7 km/h aus 110

30.6 km/h aus SSW

4.5 C

2.7 C

2.7 C

6.2 C

0 W/m

0.00 mm

16:35

6.2 C

1003.5 hpa

89 %

17.7 km/h aus 115

25.7 km/h aus SSW

4.5 C

2.7 C

2.7 C

6.2 C

0 W/m

0.00 mm

16:40

6.1 C

1003.5 hpa

89 %

20.9 km/h aus 112

30.6 km/h aus SSW

4.4 C

2.2 C

2.2 C

6.1 C

0 W/m

0.00 mm

16:45

6.1 C

1003.4 hpa

89 %

17.7 km/h aus 109

27.4 km/h aus SW

4.4 C

2.6 C

2.6 C

6.1 C

0 W/m

0.00 mm

16:50

6.1 C

1003.4 hpa

90 %

19.3 km/h aus 109

32.2 km/h aus SSW

4.6 C

2.4 C

2.4 C

6.1 C

0 W/m

0.00 mm

16:55

6.1 C

1003.4 hpa

90 %

20.9 km/h aus 114

30.6 km/h aus SSW

4.5 C

2.1 C

2.1 C

6.1 C

0 W/m

0.00 mm

17:00

6.1 C

1003.2 hpa

90 %

20.9 km/h aus 112

29.0 km/h aus SSW

4.5 C

2.1 C

2.1 C

6.1 C

0 W/m

0.00 mm

17:05

6.1 C

1003.2 hpa

90 %

16.1 km/h aus 111

22.5 km/h aus S

4.5 C

2.8 C

2.8 C

6.1 C

0 W/m

0.00 mm

17:10

6.0 C

1003.2 hpa

90 %

16.1 km/h aus 115

29.0 km/h aus SSW

4.5 C

2.7 C

2.7 C

6.0 C

0 W/m

0.00 mm

17:15

6.0 C

1003.1 hpa

90 %

16.1 km/h aus 111

25.7 km/h aus SSW

4.5 C

2.7 C

2.7 C

6.0 C

0 W/m

0.00 mm

17:20

6.0 C

1003.1 hpa

90 %

16.1 km/h aus 111

24.1 km/h aus SW

4.5 C

2.7 C

2.7 C

6.0 C

0 W/m

0.00 mm

17:25

6.0 C

1003.1 hpa

91 %

17.7 km/h aus 113

29.0 km/h aus S

4.6 C

2.5 C

2.5 C

6.0 C

0 W/m

0.00 mm

17:30

6.0 C

1003.1 hpa

91 %

16.1 km/h aus 112

24.1 km/h aus SSW

4.6 C

2.7 C

2.7 C

6.0 C

0 W/m

0.00 mm

17:35

6.0 C

1003.1 hpa

91 %

16.1 km/h aus 110

29.0 km/h aus SSW

4.6 C

2.7 C

2.7 C

6.0 C

0 W/m

0.00 mm

17:40

6.1 C

1003.1 hpa

90 %

19.3 km/h aus 112

29.0 km/h aus SW

4.5 C

2.3 C

2.3 C

6.1 C

0 W/m

0.20 mm

17:45

6.1 C

1003.1 hpa

90 %

19.3 km/h aus 114

35.4 km/h aus SSW

4.5 C

2.3 C

2.3 C

6.1 C

0 W/m

0.00 mm

17:50

6.2 C

1003.1 hpa

90 %

17.7 km/h aus 106

30.6 km/h aus SW

4.6 C

2.7 C

2.7 C

6.2 C

0 W/m

0.00 mm

17:55

6.2 C

1003.1 hpa

90 %

16.1 km/h aus 114

30.6 km/h aus SW

4.6 C

2.9 C

2.9 C

6.2 C

0 W/m

0.00 mm

18:00

6.2 C

1003.1 hpa

90 %

19.3 km/h aus 111

32.2 km/h aus SSW

4.7 C

2.5 C

2.5 C

6.2 C

0 W/m

0.00 mm

18:05

6.3 C

1003.1 hpa

90 %

17.7 km/h aus 108

30.6 km/h aus SW

4.8 C

2.8 C

2.8 C

6.3 C

0 W/m

0.00 mm

18:10

6.2 C

1003.1 hpa

90 %

17.7 km/h aus 112

27.4 km/h aus SW

4.7 C

2.7 C

2.7 C

6.2 C

0 W/m

0.00 mm

18:15

6.2 C

1003.1 hpa

90 %

16.1 km/h aus 114

30.6 km/h aus WSW

4.7 C

2.9 C

2.9 C

6.2 C

0 W/m

0.00 mm

18:20

6.2 C

1003.1 hpa

90 %

17.7 km/h aus 111

37.0 km/h aus SW

4.6 C

2.7 C

2.7 C

6.2 C

0 W/m

0.00 mm

18:25

6.2 C

1003.1 hpa

91 %

12.9 km/h aus 108

20.9 km/h aus SSW

4.8 C

3.5 C

3.5 C

6.2 C

0 W/m

0.00 mm

18:30

6.2 C

1003.1 hpa

91 %

17.7 km/h aus 109

30.6 km/h aus SSW

4.8 C

2.7 C

2.7 C

6.2 C

0 W/m

0.20 mm

18:35

6.2 C

1003.1 hpa

91 %

17.7 km/h aus 111

27.4 km/h aus SW

4.8 C

2.7 C

2.7 C

6.2 C

0 W/m

0.00 mm

18:40

6.1 C

1003.1 hpa

91 %

17.7 km/h aus 114

33.8 km/h aus SSW

4.8 C

2.6 C

2.6 C

6.1 C

0 W/m

0.00 mm

18:45

6.1 C

1003.1 hpa

91 %

19.3 km/h aus 115

33.8 km/h aus SSW

4.8 C

2.4 C

2.4 C

6.1 C

0 W/m

0.00 mm

18:50

6.1 C

1003.1 hpa

91 %

19.3 km/h aus 109

30.6 km/h aus SSW

4.8 C

2.4 C

2.4 C

6.1 C

0 W/m

0.00 mm

18:55

6.2 C

1003.1 hpa

91 %

17.7 km/h aus 113

25.7 km/h aus SW

4.8 C

2.7 C

2.7 C

6.2 C

0 W/m

0.00 mm

19:00

6.2 C

1003.1 hpa

91 %

20.9 km/h aus 111

33.8 km/h aus SW

4.8 C

2.2 C

2.2 C

6.2 C

0 W/m

0.20 mm

19:05

6.2 C

1003.1 hpa

91 %

17.7 km/h aus 109

33.8 km/h aus SSW

4.8 C

2.7 C

2.7 C

6.2 C

0 W/m

0.00 mm

19:10

6.2 C

1003.1 hpa

91 %

16.1 km/h aus 108

27.4 km/h aus SW

4.8 C

2.9 C

2.9 C

6.2 C

0 W/m

0.00 mm

19:15

6.2 C

1003.1 hpa

91 %

14.5 km/h aus 107

24.1 km/h aus SW

4.8 C

3.2 C

3.2 C

6.2 C

0 W/m

0.00 mm

19:20

6.1 C

1003.1 hpa

91 %

16.1 km/h aus 108

25.7 km/h aus SSW

4.8 C

2.8 C

2.8 C

6.1 C

0 W/m

0.00 mm

19:25

6.1 C

1003.1 hpa

91 %

19.3 km/h aus 112

29.0 km/h aus WSW

4.8 C

2.4 C

2.4 C

6.1 C

0 W/m

0.00 mm

19:30

6.1 C

1003.1 hpa

91 %

19.3 km/h aus 111

27.4 km/h aus WSW

4.8 C

2.4 C

2.4 C

6.1 C

0 W/m

0.00 mm

19:35

6.1 C

1003.1 hpa

91 %

19.3 km/h aus 112

32.2 km/h aus SW

4.8 C

2.4 C

2.4 C

6.1 C

0 W/m

0.00 mm

19:40

6.1 C

1003.1 hpa

91 %

19.3 km/h aus 112

27.4 km/h aus WSW

4.8 C

2.4 C

2.4 C

6.1 C

0 W/m

0.00 mm

19:45

6.1 C

1003.1 hpa

91 %

19.3 km/h aus 111

33.8 km/h aus SW

4.8 C

2.4 C

2.4 C

6.1 C

0 W/m

0.00 mm

19:50

6.1 C

1003.1 hpa

91 %

17.7 km/h aus 109

32.2 km/h aus SW

4.8 C

2.6 C

2.6 C

6.1 C

0 W/m

0.00 mm

19:55

6.1 C

1003.1 hpa

91 %

20.9 km/h aus 112

38.6 km/h aus SW

4.8 C

2.2 C

2.2 C

6.1 C

0 W/m

0.00 mm

20:00

6.1 C

1003.1 hpa

91 %

19.3 km/h aus 109

33.8 km/h aus WSW

4.8 C

2.4 C

2.4 C

6.1 C

0 W/m

0.00 mm

20:05

6.2 C

1003.1 hpa

91 %

19.3 km/h aus 111

32.2 km/h aus WSW

4.8 C

2.4 C

2.4 C

6.2 C

0 W/m

0.00 mm

20:10

6.2 C

1003.1 hpa

91 %

16.1 km/h aus 110

29.0 km/h aus WSW

4.8 C

2.9 C

2.9 C

6.2 C

0 W/m

0.00 mm

20:15

6.2 C

1003.1 hpa

91 %

19.3 km/h aus 111

33.8 km/h aus SSW

4.8 C

2.4 C

2.4 C

6.2 C

0 W/m

0.00 mm

20:20

6.2 C

1003.1 hpa

91 %

19.3 km/h aus 111

32.2 km/h aus SW

4.8 C

2.4 C

2.4 C

6.2 C

0 W/m

0.00 mm

20:25

6.2 C

1003.1 hpa

91 %

17.7 km/h aus 112

30.6 km/h aus SW

4.8 C

2.7 C

2.7 C

6.2 C

0 W/m

0.00 mm

20:30

6.2 C

1002.9 hpa

91 %

19.3 km/h aus 111

30.6 km/h aus W

4.8 C

2.4 C

2.4 C

6.2 C

0 W/m

0.00 mm

20:35

6.2 C

1002.9 hpa

91 %

17.7 km/h aus 110

27.4 km/h aus WSW

4.8 C

2.7 C

2.7 C

6.2 C

0 W/m

0.00 mm

20:40

6.2 C

1002.9 hpa

91 %

19.3 km/h aus 112

29.0 km/h aus SW

4.8 C

2.4 C

2.4 C

6.2 C

0 W/m

0.00 mm

20:45

6.2 C

1002.7 hpa

91 %

17.7 km/h aus 109

33.8 km/h aus WSW

4.8 C

2.7 C

2.7 C

6.2 C

0 W/m

0.00 mm

20:50

6.2 C

1002.7 hpa

91 %

19.3 km/h aus 114

35.4 km/h aus SW

4.8 C

2.4 C

2.4 C

6.2 C

0 W/m

0.00 mm

20:55

6.2 C

1002.7 hpa

91 %

24.1 km/h aus 108

38.6 km/h aus SW

4.8 C

1.8 C

1.8 C

6.2 C

0 W/m

0.00 mm

21:00

6.2 C

1002.7 hpa

91 %

20.9 km/h aus 110

38.6 km/h aus WSW

4.8 C

2.2 C

2.2 C

6.2 C

0 W/m

0.00 mm

21:05

6.2 C

1002.7 hpa

92 %

19.3 km/h aus 111

30.6 km/h aus SW

5.0 C

2.4 C

2.4 C

6.2 C

0 W/m

0.20 mm

21:10

6.1 C

1002.7 hpa

92 %

19.3 km/h aus 111

32.2 km/h aus SSW

4.9 C

2.4 C

2.4 C

6.1 C

0 W/m

0.00 mm

21:15

6.1 C

1002.7 hpa

92 %

17.7 km/h aus 109

32.2 km/h aus SW

4.9 C

2.6 C

2.6 C

6.1 C

0 W/m

0.00 mm

21:20

6.1 C

1002.7 hpa

92 %

14.5 km/h aus 110

24.1 km/h aus SW

4.9 C

3.1 C

3.1 C

6.1 C

0 W/m

0.00 mm

21:25

6.1 C

1002.7 hpa

92 %

17.7 km/h aus 113

32.2 km/h aus WSW

4.9 C

2.6 C

2.6 C

6.1 C

0 W/m

0.00 mm

21:30

6.1 C

1002.6 hpa

92 %

16.1 km/h aus 114

25.7 km/h aus WSW

4.9 C

2.8 C

2.8 C

6.1 C

0 W/m

0.00 mm

21:35

6.1 C

1002.6 hpa

92 %

16.1 km/h aus 112

27.4 km/h aus SW

4.9 C

2.8 C

2.8 C

6.1 C

0 W/m

0.00 mm

21:40

6.1 C

1002.6 hpa

92 %

16.1 km/h aus 112

25.7 km/h aus SW

4.9 C

2.8 C

2.8 C

6.1 C

0 W/m

0.00 mm

21:45

6.1 C

1002.7 hpa

92 %

16.1 km/h aus 108

25.7 km/h aus SW

4.9 C

2.8 C

2.8 C

6.1 C

0 W/m

0.00 mm

21:50

6.2 C

1002.7 hpa

92 %

17.7 km/h aus 110

32.2 km/h aus WSW

5.0 C

2.7 C

2.7 C

6.2 C

0 W/m

0.00 mm

21:55

6.2 C

1002.7 hpa

92 %

11.3 km/h aus 111

20.9 km/h aus WSW

5.0 C

3.8 C

3.8 C

6.2 C

0 W/m

0.00 mm

22:00

6.2 C

1003.0 hpa

92 %

14.5 km/h aus 111

24.1 km/h aus SW

5.0 C

3.2 C

3.2 C

6.2 C

0 W/m

0.00 mm

22:05

6.2 C

1003.0 hpa

91 %

16.1 km/h aus 109

25.7 km/h aus W

4.9 C

2.9 C

2.9 C

6.2 C

0 W/m

0.00 mm

22:10

6.3 C

1003.0 hpa

91 %

16.1 km/h aus 110

25.7 km/h aus SW

4.9 C

3.1 C

3.1 C

6.3 C

0 W/m

0.00 mm

22:15

6.3 C

1002.7 hpa

91 %

17.7 km/h aus 112

32.2 km/h aus SW

4.9 C

2.8 C

2.8 C

6.3 C

0 W/m

0.00 mm

22:20

6.3 C

1002.7 hpa

91 %

16.1 km/h aus 111

27.4 km/h aus SW

4.9 C

3.1 C

3.1 C

6.3 C

0 W/m

0.00 mm

22:25

6.3 C

1002.7 hpa

91 %

16.1 km/h aus 113

25.7 km/h aus WSW

4.9 C

3.1 C

3.1 C

6.3 C

0 W/m

0.00 mm

22:30

6.3 C

1002.8 hpa

90 %

17.7 km/h aus 111

27.4 km/h aus WSW

4.8 C

2.8 C

2.8 C

6.3 C

0 W/m

0.00 mm

22:35

6.4 C

1002.8 hpa

90 %

17.7 km/h aus 109

33.8 km/h aus WSW

4.9 C

2.9 C

2.9 C

6.4 C

0 W/m

0.00 mm

22:40

6.4 C

1002.8 hpa

90 %

22.5 km/h aus 109

40.2 km/h aus W

4.9 C

2.3 C

2.3 C

6.4 C

0 W/m

0.00 mm

22:45

6.3 C

1003.0 hpa

89 %

20.9 km/h aus 110

35.4 km/h aus W

4.6 C

2.3 C

2.3 C

6.3 C

0 W/m

0.00 mm

22:50

6.2 C

1003.0 hpa

89 %

19.3 km/h aus 107

32.2 km/h aus W

4.5 C

2.5 C

2.5 C

6.2 C

0 W/m

0.20 mm

22:55

6.1 C

1003.0 hpa

89 %

19.3 km/h aus 113

35.4 km/h aus W

4.4 C

2.4 C

2.4 C

6.1 C

0 W/m

0.40 mm

23:00

5.9 C

1002.8 hpa

89 %

12.9 km/h aus 109

20.9 km/h aus WSW

4.3 C

3.2 C

3.2 C

5.9 C

0 W/m

0.20 mm

23:05

5.8 C

1002.8 hpa

89 %

14.5 km/h aus 111

27.4 km/h aus W

4.2 C

2.8 C

2.8 C

5.8 C

0 W/m

0.00 mm

23:10

5.8 C

1002.8 hpa

90 %

12.9 km/h aus 113

22.5 km/h aus W

4.3 C

3.1 C

3.1 C

5.8 C

0 W/m

0.00 mm

23:15

5.7 C

1003.0 hpa

90 %

12.9 km/h aus 113

24.1 km/h aus W

4.2 C

3.0 C

3.0 C

5.7 C

0 W/m

0.00 mm

23:20

5.7 C

1003.0 hpa

90 %

12.9 km/h aus 110

24.1 km/h aus W

4.2 C

3.0 C

3.0 C

5.7 C

0 W/m

0.00 mm

23:25

5.8 C

1003.0 hpa

90 %

11.3 km/h aus 112

19.3 km/h aus W

4.3 C

3.3 C

3.3 C

5.8 C

0 W/m

0.00 mm

23:30

5.8 C

1003.1 hpa

90 %

9.7 km/h aus 112

19.3 km/h aus SW

4.3 C

3.7 C

3.7 C

5.8 C

0 W/m

0.00 mm

23:35

5.8 C

1003.1 hpa

90 %

12.9 km/h aus 109

22.5 km/h aus SW

4.3 C

3.1 C

3.1 C

5.8 C

0 W/m

0.00 mm

23:40

5.8 C

1003.1 hpa

90 %

11.3 km/h aus 111

19.3 km/h aus WSW

4.3 C

3.3 C

3.3 C

5.8 C

0 W/m

0.00 mm

23:45

5.8 C

1003.1 hpa

91 %

14.5 km/h aus 115

25.7 km/h aus WSW

4.4 C

2.7 C

2.7 C

5.8 C

0 W/m

0.00 mm

23:50

5.9 C

1003.1 hpa

91 %

12.9 km/h aus 110

25.7 km/h aus SW

4.5 C

3.2 C

3.2 C

5.9 C

0 W/m

0.00 mm

23:55

5.9 C

1003.1 hpa

91 %

12.9 km/h aus 107

25.7 km/h aus SW

4.6 C

3.2 C

3.2 C

5.9 C

0 W/m

0.00 mm